Theta_e
317 317 319 319 319 316 315 316 317 318 316 314 312 312 312 311 310 310 309 309 310 312 313 313 313 314 314 314 311 307 306 307 310 313 314 313 312 313 312 311 311 312
317 318 319 319 319 316 316 317 317 317 315 312 311 312 312 310 310 310 309 308 309 310 310 311 312 313 314 314 312 309 306 306 307 309 313 313 313 312 311 310 309 309
318 319 319 320 319 317 317 318 318 317 314 312 312 312 311 310 311 311 312 311 311 309 308 309 311 312 313 313 313 310 308 308 307 307 309 312 313 313 312 312 310 308
320 321 320 320 319 316 316 318 318 318 316 315 313 312 312 311 311 313 314 314 315 312 308 308 311 313 313 312 312 313 311 310 310 309 309 311 312 312 312 313 312 310
321 322 321 320 319 317 316 317 317 318 318 317 316 314 314 313 312 313 314 315 316 315 311 309 311 313 313 312 311 312 313 312 311 311 310 310 311 312 311 312 313 312
321 321 321 320 320 317 317 317 316 317 317 318 317 317 316 316 314 314 315 316 315 316 314 311 311 312 313 313 311 311 314 314 312 312 311 310 311 312 311 310 312 312
322 321 321 321 320 318 318 318 317 317 317 318 318 318 318 318 317 316 316 316 316 316 316 314 314 313 312 313 312 311 314 315 314 314 313 312 312 313 312 310 310 311
322 322 321 321 320 319 318 319 319 319 318 318 318 319 318 318 318 318 317 317 317 316 317 316 316 315 314 314 314 312 313 315 314 314 314 314 313 313 313 311 309 310
322 322 321 321 320 320 320 320 320 320 319 319 319 319 319 318 317 318 318 318 318 318 317 317 317 317 316 316 315 314 313 314 314 314 314 314 313 313 314 313 312 310
322 321 320 320 320 320 320 320 321 321 320 319 319 319 319 318 318 317 317 318 318 318 318 318 318 318 318 317 317 317 316 315 315 314 314 314 314 313 314 314 314 312
322 321 321 321 320 320 320 320 321 320 320 320 320 320 319 319 319 318 317 317 318 318 318 318 318 318 318 318 318 318 318 317 316 315 314 314 314 314 314 314 314 314
323 322 321 321 321 320 320 320 320 319 320 320 320 320 319 319 319 319 318 318 317 317 318 318 318 319 318 318 319 319 319 319 318 317 316 315 314 314 314 314 314 314
323 322 322 322 321 320 320 320 319 319 319 319 319 319 319 319 319 319 319 319 319 318 317 317 318 318 319 319 319 319 319 319 319 319 318 317 316 315 315 314 314 314
322 321 321 321 321 320 319 320 319 318 319 319 319 318 318 319 319 318 319 319 319 318 317 317 318 319 319 319 319 319 319 320 320 320 319 318 317 317 316 316 315 315
320 320 320 319 320 319 319 320 319 318 318 319 318 319 319 319 319 319 318 318 318 319 318 319 319 320 320 320 320 319 319 319 319 319 319 318 317 318 318 317 316 316
318 319 319 318 319 319 319 320 319 318 319 319 319 320 320 321 320 319 319 319 320 320 320 320 321 321 321 320 320 320 319 319 319 319 319 318 318 318 318 318 318 316
314 315 315 314 315 315 315 316 316 316 317 317 318 318 318 319 320 320 320 320 321 320 320 320 320 320 320 320 320 320 320 320 319 319 319 319 319 319 319 319 318 318
310 310 310 309 310 310 310 310 310 311 311 311 312 312 313 314 315 316 316 316 317 317 317 317 318 318 319 319 320 320 320 320 320 320 320 319 319 319 319 319 318 318
307 307 308 308 309 308 308 309 308 309 308 308 309 309 309 310 310 311 311 311 311 311 312 312 313 314 316 318 319 319 319 320 320 319 320 320 320 319 319 319 318 318
307 307 307 308 309 308 308 308 307 307 308 308 309 309 309 309 310 310 310 310 310 310 310 310 310 311 312 313 316 318 319 320 320 319 319 320 320 319 319 318 317 316
307 307 307 308 309 309 309 308 307 307 308 308 307 308 309 309 309 309 309 309 309 310 310 310 310 310 311 311 312 315 318 319 319 319 319 319 319 318 317 317 316 315
307 307 307 308 308 308 308 308 308 308 308 308 308 309 309 309 309 309 309 309 309 309 309 310 309 309 310 310 310 311 314 317 318 319 319 319 318 317 316 315 315 315
306 306 306 307 307 307 307 307 307 307 308 307 308 308 309 309 309 308 308 308 308 308 309 309 309 310 309 310 310 310 312 315 317 318 318 317 316 315 314 313 313 312
306 306 306 306 306 306 306 306 306 306 307 307 307 308 308 308 308 308 308 307 307 308 309 309 309 310 310 310 310 311 313 315 317 316 315 313 312 311 310 310 309 308
306 306 306 306 306 305 306 306 305 306 306 306 307 307 308 308 309 309 308 308 307 307 308 309 309 309 310 310 310 311 313 314 315 314 312 310 309 308 307 306 306 305
305 305 305 305 305 305 305 305 305 305 304 305 305 305 306 307 309 309 309 308 308 308 309 309 309 309 309 310 310 311 312 312 312 311 310 307 306 305 305 304 304 303
Wind_Speed
22 23 22 21 19 19 19 18 16 16 15 14 13 12 11 11 11 11 10 9 8 7 6 5 4 5 6 7 7 7 7 7 7 6 6 7 8 8 8 8 7 6
24 23 23 22 21 21 20 19 17 17 15 14 14 12 11 11 12 12 11 10 9 8 7 6 5 5 5 5 6 6 7 7 8 6 5 6 7 7 8 9 8 7
25 25 24 24 23 23 22 19 18 17 16 15 14 13 12 11 12 11 10 10 8 8 8 8 8 7 6 5 5 5 5 6 7 7 6 6 6 6 7 8 8 8
26 26 26 26 25 24 22 20 19 18 17 16 14 13 13 12 11 11 10 9 7 7 8 9 9 8 7 6 5 4 5 5 5 7 7 6 5 5 5 6 7 8
27 28 28 28 26 24 22 21 20 19 19 17 15 14 14 13 12 11 10 9 7 6 7 8 10 9 7 7 6 6 5 5 5 5 6 6 5 4 3 3 5 6
25 29 30 29 25 23 22 20 19 21 21 19 18 16 15 14 13 12 11 10 9 8 8 9 10 10 9 8 7 6 6 6 5 4 4 4 5 4 3 2 3 4
22 27 30 29 26 23 22 19 17 21 23 21 20 20 18 16 15 13 12 12 11 11 10 10 10 11 11 10 8 7 6 6 5 4 4 3 4 3 3 2 2 2
19 24 27 27 25 22 20 18 16 21 25 24 24 23 21 20 17 15 14 13 14 14 12 12 11 11 11 11 9 9 8 7 7 6 6 5 5 5 4 4 4 4
18 21 24 25 23 19 17 17 18 20 22 22 24 23 22 22 20 18 17 15 15 16 15 14 13 12 12 12 11 10 10 9 9 9 8 8 8 7 6 6 6 5
17 17 19 21 21 20 18 17 16 17 18 18 20 23 21 20 21 22 22 20 18 19 19 17 16 15 14 13 13 12 11 11 11 11 11 11 10 9 8 8 8 7
15 16 17 17 18 19 19 17 12 13 15 14 15 19 21 19 20 22 22 21 21 22 23 21 19 18 16 15 16 15 14 14 14 14 14 13 12 12 11 11 11 10
14 15 15 14 13 13 14 15 11 9 13 13 11 13 16 17 18 19 20 20 22 25 27 26 22 19 17 16 18 19 17 17 17 17 17 16 15 14 14 13 13 12
14 14 12 11 10 8 11 14 13 12 14 16 16 15 16 18 17 16 16 17 18 22 28 30 26 22 19 17 19 21 21 20 20 20 20 19 18 17 17 16 16 15
12 10 9 10 10 8 9 11 11 12 14 17 19 18 17 17 16 16 16 15 15 20 26 28 26 22 20 19 20 21 21 21 21 21 21 20 20 19 20 20 19 18
8 6 5 7 10 8 9 11 13 16 19 20 19 16 13 13 13 14 14 13 14 18 22 23 21 20 20 20 21 21 21 21 21 21 21 20 20 21 22 22 22 21
5 6 6 7 8 7 8 10 13 16 16 13 11 8 8 8 9 10 11 12 13 16 18 18 18 18 18 18 19 20 21 21 21 21 21 21 21 21 22 23 23 23
4 4 5 5 5 5 6 6 6 7 6 4 3 2 2 3 4 6 9 10 11 11 11 11 12 13 13 14 15 16 17 19 19 20 20 20 20 20 21 21 22 23
5 4 4 5 6 7 8 8 8 8 7 7 6 5 5 4 3 2 2 2 2 3 4 6 7 9 10 11 12 13 14 16 17 18 18 18 18 18 18 19 20 21
6 5 5 6 7 7 7 8 8 7 7 7 6 6 5 5 5 5 4 3 3 3 4 5 5 7 8 10 11 12 12 13 14 15 15 15 15 16 16 17 18 19
4 4 5 5 6 6 5 5 5 5 5 5 5 5 4 4 4 3 3 4 5 5 6 7 7 8 9 9 10 11 12 13 12 12 13 13 13 13 15 16 17 18
3 2 2 2 3 3 2 2 3 3 3 4 4 4 3 3 3 4 5 6 7 7 8 9 9 9 10 11 10 11 12 13 13 12 11 12 11 12 13 14 16 16
4 4 4 4 3 2 2 2 3 4 4 5 5 4 4 4 4 5 6 7 8 10 11 12 12 12 12 11 11 11 11 12 13 13 12 11 11 12 13 13 14 14
6 5 6 6 4 3 4 4 5 5 6 6 6 6 5 5 6 6 7 9 10 11 12 13 13 13 13 12 12 11 11 11 12 12 11 11 11 11 11 11 10 10
4 4 4 4 4 4 4 5 5 6 6 7 7 7 8 8 8 8 9 10 11 12 13 12 12 12 12 12 12 11 11 9 9 10 9 9 8 7 6 6 7 8
1 1 1 2 3 3 4 5 5 6 7 8 8 9 9 9 9 9 10 11 12 13 13 12 12 12 11 11 10 10 10 7 6 8 8 8 8 8 8 8 9 10
3 2 1 1 1 2 3 4 6 8 9 10 10 10 10 10 9 10 10 11 12 13 12 12 12 12 12 10 8 8 7 5 6 8 10 11 11 11 11 10 10 10
Wind_Direction
195 194 191 189 192 195 190 188 196 200 201 203 202 196 190 185 177 172 169 164 161 156 146 139 125 104 89 74 68 80 93 98 101 106 105 97 92 88 82 76 74 75
197 196 194 193 196 199 196 193 199 207 208 208 207 204 201 196 185 176 169 162 164 169 169 169 163 144 120 94 74 77 93 96 96 105 117 106 96 91 80 73 70 68
198 198 199 198 199 201 199 197 203 211 214 212 212 210 207 201 193 186 180 172 169 174 182 186 182 170 153 130 101 88 97 100 98 103 117 121 109 99 88 78 71 73
199 202 204 204 203 203 200 199 206 213 216 216 215 214 210 206 201 197 193 191 189 185 189 197 198 188 172 158 141 122 110 104 106 107 114 128 126 107 97 90 78 77
201 206 208 207 206 204 201 200 207 213 216 217 216 215 213 210 208 205 202 204 207 207 202 202 206 206 195 183 171 160 145 129 124 118 114 124 128 112 96 106 95 81
205 208 210 209 207 206 204 203 209 215 218 219 219 218 217 215 214 215 212 211 212 214 213 209 210 213 214 209 198 190 177 157 148 139 129 128 126 112 94 123 127 93
211 212 210 210 208 207 207 206 213 223 223 223 224 223 222 220 218 220 220 221 220 218 217 217 218 219 219 220 216 212 209 195 183 176 170 166 155 142 130 155 174 133
216 215 212 212 208 205 210 213 223 232 231 230 231 230 229 226 223 223 227 233 235 232 231 229 227 228 226 226 226 224 225 224 220 214 207 205 204 194 176 176 188 182
211 212 210 209 201 198 214 225 230 239 243 242 236 232 231 230 229 229 228 233 239 239 241 239 234 234 234 235 236 235 236 236 235 234 229 226 225 221 211 205 206 203
194 197 197 196 194 198 212 222 229 240 251 257 249 240 237 235 235 235 233 236 240 240 242 243 238 235 238 241 244 245 247 248 248 247 245 242 240 238 232 228 227 224
178 182 183 185 193 203 210 212 218 228 236 250 257 249 243 239 237 239 241 243 247 249 248 246 241 238 242 249 252 253 254 255 256 255 255 254 252 251 247 242 242 240
180 180 178 182 193 204 213 216 217 222 226 234 251 251 239 233 235 241 245 246 251 257 259 256 249 242 244 252 256 256 257 258 258 258 260 258 256 256 254 251 250 249
193 191 190 198 209 214 226 232 233 237 238 239 246 250 237 229 232 239 243 247 256 263 263 262 256 248 249 255 257 257 258 258 258 259 260 261 261 261 259 256 254 252
206 207 208 225 238 237 240 245 241 241 245 243 243 245 241 236 237 240 243 250 261 264 260 257 254 251 255 261 261 260 259 258 258 258 259 262 265 265 263 259 256 252
210 211 210 232 246 250 253 252 237 229 233 237 239 243 248 249 247 246 248 251 256 257 255 254 255 257 260 263 263 263 261 261 261 258 258 262 266 265 262 260 258 255
182 186 182 202 219 221 224 228 221 217 222 229 236 244 254 256 251 249 248 246 247 249 252 256 261 264 267 268 267 268 268 267 267 265 266 269 271 267 263 261 260 259
144 159 168 177 182 175 171 172 176 182 186 183 185 197 213 219 226 230 231 234 241 249 257 267 273 275 278 277 274 273 273 272 272 273 274 275 274 272 270 269 266 263
111 121 129 130 127 123 121 119 116 114 108 101 98 93 88 92 101 121 159 197 244 273 287 293 293 293 292 287 282 278 274 273 273 274 275 276 276 276 276 275 271 267
93 93 100 112 117 114 111 109 105 100 94 86 81 79 75 74 74 72 66 49 24 358 340 331 323 318 308 296 290 285 279 275 273 273 275 277 279 280 278 275 272 268
98 82 86 105 114 111 105 98 87 82 79 71 65 61 57 57 53 38 23 6 352 344 340 337 335 331 326 316 303 289 282 279 276 275 276 278 281 282 280 278 274 268
120 92 90 118 129 120 101 76 56 42 35 27 24 24 21 19 9 354 348 343 339 337 334 333 334 331 329 329 321 304 290 282 277 273 271 273 278 279 279 277 272 268
100 101 103 111 122 115 71 40 19 8 0 351 350 352 348 346 341 336 333 332 330 329 327 327 329 328 328 328 323 315 304 291 280 271 264 264 267 270 273 272 268 264
82 85 89 89 84 67 42 18 3 357 352 345 339 333 327 323 322 320 319 320 322 323 322 322 323 326 330 330 326 320 312 299 283 269 261 258 259 263 267 266 259 248
75 67 67 62 48 38 29 14 2 356 349 341 331 323 316 310 308 310 312 316 321 322 321 321 323 327 331 333 332 325 316 303 280 259 247 241 239 236 235 231 209 197
125 77 34 42 40 32 24 10 -0 358 354 346 339 334 326 314 305 303 305 306 310 312 314 319 324 329 332 334 334 327 318 304 270 241 218 200 193 182 172 171 168 168
205 205 210 149 78 24 10 355 343 342 340 334 331 329 327 321 309 299 296 295 296 299 304 311 317 323 327 331 331 324 314 295 251 226 202 183 176 171 164 160 159 162